{"data":{"norad_id":52492,"epoch":"2026-09-19T14:02:20.467968Z","epoch_age_seconds":142324,"freshness":"FRESH","line1":"1 52492U 22049AT  26262.58495912  .00000561  00000+0  27750-4 0  9996","line2":"2 52492  53.1593 247.6482 0001644  65.6418 294.4756 15.34391178241813","mean_motion":15.34391178,"eccentricity":0.0001644,"inclination_deg":53.1593,"raan_deg":247.6482,"arg_perigee_deg":65.6418,"mean_anomaly_deg":294.4756,"bstar":2.775e-5,"rev_number":24181,"period_min":93.848297660116,"perigee_km":461.60482272967,"apogee_km":463.85409962211,"semimajor_km":6840.8664611759,"source":"CELESTRAK","updated_at":"2026-09-20T09:00:40.055780Z"}}